Location: Bas Lanzent
(48.1360°N, 3.5871°W)
Time: 15:35:23
(UTC+00:00)

CZ-2C R/B - Pass Details

Date: 18 February 2020
Orbit: 668 x 784 km, 98.1° (Epoch: 27 March)

Event Time Altitude Azimuth Distance (km) Brightness Sun altitude
Rises 03:51:27 0° 20° (NNE) 3,287 6.3 -34.5°
Reaches altitude 10° 03:54:00 10° 30° (NNE) 2,350 5.6 -34.1°
Maximum altitude 03:58:45 35° 95° (E) 1,232 3.9 -33.3°
Enters shadow 03:59:18 34° 109° (ESE) 1,251 3.8 -33.2°
